Meteo Giornale » Osservazioni meteo Gran Bretagna » Londra City AP

ore: 15:50 - Osservazioni Meteo Londra City AP
Lat. 51° 30' N Lon. 0° 30' W Alt. 5 metri s.l.m.

sereno Europe/London

16 °C

Sereno

Temp. 24 Ore

13 °C

17 °C

Ovest

14.8 Km/h

Dew point 4 °C

Umidità 44 %

Visibilità  10 Km

Il sole sorge alle ore 07:01

Il sole tramonta alle ore 18:41

Data e Ora Cielo e Fenomeni T °C DP °C Um. % Pres. hPa Vis. km Vento km/h
Oggi h: 15:50 sereno Sereno 16 4 44 997 10 O 14.8
Oggi h: 15:20 poco_nuvoloso Poco Nuvoloso 15 5 51 997 10 O 20.3
Oggi h: 14:50 poco_nuvoloso Poco Nuvoloso 15 6 54 997 10 O/SO 18.5
Oggi h: 14:20 poco_nuvoloso Poco Nuvoloso 16 6 51 997 10 O 18.5
Oggi h: 13:50 sereno Sereno 15 7 58 998 10 O/SO 16.7
Oggi h: 13:20 sereno Sereno 15 8 62 998 10 O 16.7
Oggi h: 12:50 nuvoloso Nuvoloso 15 8 62 998 10 O 18.5
Oggi h: 12:20 nuvoloso Nuvoloso 15 9 67 998 10 O 16.7
Oggi h: 11:50 molto_nuvoloso Molto Nuvoloso 14 9 71 998 10 O/SO 14.8
Oggi h: 11:20 molto_nuvoloso Molto Nuvoloso 14 9 71 998 10 O 13
Oggi h: 10:50 coperto Coperto 13 9 76 998 10 O/NO 13
Oggi h: 10:20 coperto Coperto 13 9 76 998 10 O/NO 14.8
Oggi h: 09:50 coperto Coperto 13 10 81 998 10 O/NO 13
Oggi h: 09:20 coperto Coperto 13 9 76 998 10 O/NO 14.8
Oggi h: 08:50 coperto Coperto 13 9 76 998 10 O/NO 11.1
Oggi h: 08:20 molto_nuvoloso Molto Nuvoloso 13 9 76 998 10 O/NO 11.1
Oggi h: 07:50 coperto Coperto 13 9 76 998 10 O/NO 11.1
Oggi h: 07:20 coperto Coperto 13 9 76 998 10 O/NO 14.8
Oggi h: 06:50 coperto Coperto 13 10 81 998 10 O/NO 16.7
Oggi h: 06:20 coperto Coperto 13 11 87 998 10 O 11.1
Oggi h: 05:50 coperto Coperto 13 11 87 998 10 O/NO 11.1
Oggi h: 04:50 molto_nuvoloso Molto Nuvoloso 14 11 82 998 10 O 11.1
Oggi h: 04:20 nuvoloso Nuvoloso 13 12 93 998 10 O 11.1
Oggi h: 03:50 nuvoloso Nuvoloso 14 12 87 999 10 N 5.5
Oggi h: 03:20 sereno Sereno 14 12 87 999 10 SO 9.3
Oggi h: 02:50 sereno Sereno 14 12 87 999 10 O/SO 11.1
Oggi h: 02:20 poco_nuvoloso Poco Nuvoloso 14 12 87 999 10 O/SO 9.3
Oggi h: 01:50 poco_nuvoloso Poco Nuvoloso 14 13 93 999 10 O/SO 13
Oggi h: 01:20 molto_nuvoloso Molto Nuvoloso 15 13 87 1000 10 O/SO 16.7
Oggi h: 00:50 molto_nuvoloso Molto Nuvoloso 15 13 87 1000 10 SO 14.8
Oggi h: 00:20 coperto_pioggia Pioggia Debole 15 13 87 1000 10 S/SO 14.8
Ieri h: 23:50 coperto_pioggia Pioggia Debole 15 13 87 1000 10 S/SO 13
Ieri h: 23:20 coperto_pioggia Pioggia Debole 15 13 87 1000 10 S 13
Ieri h: 22:50 coperto_pioggia Pioggia Debole 15 13 87 1001 10 S/SO 16.7
Ieri h: 22:20 coperto_pioggia Pioggia Debole 15 13 87 1001 10 S/SO 16.7
Ieri h: 21:50 coperto_pioggia Pioggia 15 13 87 1002 4 S/SO 16.7
Ieri h: 21:20 coperto_pioggia Pioggia Debole 15 13 87 1002 10 S 9.3
Ieri h: 20:50 coperto_pioggia Pioggia Debole 15 13 87 1002 10 S/SO 11.1
Ieri h: 20:20 coperto_pioggia Pioggia Debole 16 13 82 1002 10 S 13
Ieri h: 19:50 coperto_pioggia Pioggia Debole 16 13 82 1003 10 S 16.7
Ieri h: 19:20 coperto_pioggia Pioggia Debole 16 13 82 1003 10 S/SO 20.3
Ieri h: 18:50 coperto_pioggia Pioggia Debole 16 14 87 1003 10 S 13
Ieri h: 18:20 coperto_pioggia Pioggia Debole 17 14 82 1003 10 S/SO 16.7
Ieri h: 17:50 molto_nuvoloso Molto Nuvoloso 17 13 77 1004 10 S/SO 18.5
Ieri h: 16:50 coperto_pioggia Pioggia Debole 16 14 87 1005 10 S/SO 16.7